This is the latest recevied weather packets stored in our database for station/object OM5AST-13. If no packets are shown the sender has not sent any weather packets the latest 10 day(s).
| Time | Temp. | Humidity | Pressure | Rain* | Wind** | Luminosity | Snow |
|---|---|---|---|---|---|---|---|
| 1787979835 | 18.89° C | 73% | - | 0 mm | - | 0 W/m² | - |
| 1787978635 | 19.44° C | 74% | - | 0 mm | - | 0 W/m² | - |
| 1787977435 | 19.44° C | 75% | - | 0 mm | - | 0 W/m² | - |
| 1787976235 | 20° C | 73% | - | 0 mm | - | 0 W/m² | - |
| 1787975035 | 20° C | 73% | - | 0 mm | - | 0 W/m² | - |
| 1787973835 | 19.44° C | 74% | - | 0 mm | - | 0 W/m² | - |
| 1787972635 | 19.44° C | 74% | - | 0 mm | - | 0 W/m² | - |
| 1787971435 | 20° C | 74% | - | 0 mm | - | 0 W/m² | - |
| 1787970235 | 19.44° C | 74% | - | 0 mm | - | 0 W/m² | - |
| 1787969042 | 20° C | 68% | - | 0 mm | - | 0 W/m² | - |
| 1787967845 | 20.56° C | 66% | - | 0 mm | - | 0 W/m² | - |
| 1787966635 | 21.67° C | 73% | - | 0 mm | - | 0 W/m² | - |
| 1787965443 | 22.78° C | 71% | - | 0 mm | - | 0 W/m² | - |
| 1787964235 | 23.33° C | 68% | - | 0 mm | - | 0 W/m² | - |
| 1787963035 | 24.44° C | 60% | - | 0 mm | - | 0 W/m² | - |
| 1787961835 | 25° C | 37% | - | 0 mm | - | 0 W/m² | - |
| 1787960635 | 25° C | 36% | - | 0 mm | - | 0 W/m² | - |
| 1787959435 | 25.56° C | 37% | - | 0 mm | - | 0 W/m² | - |
| 1787958235 | 25.56° C | 36% | - | 0 mm | - | 0 W/m² | - |
| 1787957035 | 26.11° C | 36% | - | 0 mm | - | 0 W/m² | - |
| 1787955835 | 26.11° C | 37% | - | 0 mm | - | 0 W/m² | - |
| 1787954636 | 26.67° C | 36% | - | 0 mm | - | 0 W/m² | - |
| 1787953435 | 26.67° C | 37% | - | 0 mm | - | 0 W/m² | - |
| 1787952235 | 26.67° C | 38% | - | 0 mm | - | 0 W/m² | - |
| 1787951035 | 26.67° C | 38% | - | 0 mm | - | 0 W/m² | - |
* Rain latest hour (hover to see other rain measurements)
** Current wind speed in m/s (hover to see current wind gust speed)